,,PA_Meas_PMT16A,,PR_Meas_QMR101_102,,RH_Meas_QMH101,,SR_Meas_QMS101,,TA_Meas_QMH101,,GenWind,,GenWind,
time,status,PA,status,PR,status,RH,status,SR,status,TA,status,DirAvg,status,SpdAvg,
2013-03-13, 00:00:04,VALID,920.119,VALID,0,VALID,97.4273,VALID,0,VALID,18.6124,VALID,126,VALID,0,
2013-03-13, 00:01:04,VALID,920.09,VALID,0,VALID,97.412,VALID,0,VALID,18.5943,VALID,126,VALID,0,
2013-03-13, 00:02:04,VALID,920.092,VALID,0,VALID,97.4349,VALID,0,VALID,18.5734,VALID,126,VALID,0,
2013-03-13, 00:03:04,VALID,920.055,VALID,0,VALID,97.4349,VALID,0,VALID,18.5943,VALID,126,VALID,0,
2013-03-13, 00:04:04,VALID,920.121,VALID,0,VALID,97.4425,VALID,0,VALID,18.5929,VALID,126,VALID,0,
2013-03-13, 00:05:04,VALID,920.06,VALID,0,VALID,97.4501,VALID,0,VALID,18.6528,VALID,126,VALID,0,
2013-03-13, 00:06:04,VALID,920.065,VALID,0,VALID,97.4425,VALID,0,VALID,18.6319,VALID,126,VALID,0,
2013-03-13, 00:07:04,VALID,920.044,VALID,0,VALID,97.4425,VALID,0,VALID,18.6333,VALID,126,VALID,0,
2013-03-13, 00:08:04,VALID,919.98,VALID,0,VALID,97.4425,VALID,0,VALID,18.6138,VALID,126,VALID,0,
2013-03-13, 00:09:04,VALID,919.98,VALID,0,VALID,97.4501,VALID,0,VALID,18.4968,VALID,126,VALID,0,
2013-03-13, 00:10:04,VALID,919.944,VALID,0,VALID,97.4196,VALID,0,VALID,18.3784,VALID,126,VALID,0,
2013-03-13, 00:11:04,VALID,919.887,VALID,0,VALID,97.4577,VALID,0,VALID,18.3979,VALID,126,VALID,0,
2013-03-13, 00:12:04,VALID,919.898,VALID,0,VALID,97.4577,VALID,0,VALID,18.5163,VALID,126,VALID,0,
2013-03-13, 00:13:04,VALID,919.892,VALID,0,VALID,97.4577,VALID,0,VALID,18.5553,VALID,126,VALID,0,
2013-03-13, 00:14:04,VALID,919.914,VALID,0,VALID,97.4577,VALID,0,VALID,18.5748,VALID,126,VALID,0,
2013-03-13, 00:15:04,VALID,919.899,VALID,0,VALID,97.473,VALID,0,VALID,18.5539,VALID,126,VALID,0,
2013-03-13, 00:16:04,VALID,919.947,VALID,0,VALID,97.4577,VALID,0,VALID,18.6124,VALID,126,VALID,0,
2013-03-13, 00:17:04,VALID,919.994,VALID,0,VALID,97.473,VALID,0,VALID,18.6333,VALID,126,VALID,0,
2013-03-13, 00:18:04,VALID,919.964,VALID,0,VALID,97.4654,VALID,0,VALID,18.6903,VALID,126,VALID,0,
2013-03-13, 00:19:04,VALID,919.97,VALID,0,VALID,97.4425,VALID,0,VALID,18.7697,VALID,126,VALID,0,
2013-03-13, 00:20:04,VALID,920.029,VALID,0,VALID,97.4501,VALID,0,VALID,18.8658,VALID,144,VALID,0,
2013-03-13, 00:21:04,VALID,919.992,VALID,0,VALID,97.4577,VALID,0,VALID,18.9257,VALID,144,VALID,0,
2013-03-13, 00:22:04,VALID,919.96,VALID,0,VALID,97.4425,VALID,0,VALID,18.9647,VALID,144,VALID,0,
2013-03-13, 00:23:04,VALID,920.017,VALID,0,VALID,97.4501,VALID,0,VALID,18.9452,VALID,144,VALID,0,
2013-03-13, 00:24:04,VALID,919.985,VALID,0,VALID,97.4654,VALID,0,VALID,18.9062,VALID,144,VALID,0,
2013-03-13, 00:25:04,VALID,920.033,VALID,0,VALID,97.4425,VALID,0,VALID,18.6513,VALID,144,VALID,0,
2013-03-13, 00:26:04,VALID,920.021,VALID,0,VALID,97.4425,VALID,0,VALID,18.5149,VALID,144,VALID,0,
2013-03-13, 00:27:04,VALID,920.005,VALID,0,VALID,97.4425,VALID,0,VALID,18.4369,VALID,144,VALID,0,
2013-03-13, 00:28:04,VALID,919.962,VALID,0,VALID,97.4501,VALID,0,VALID,18.4369,VALID,144,VALID,0,
2013-03-13, 00:29:04,VALID,919.966,VALID,0,VALID,97.4501,VALID,0,VALID,18.4174,VALID,144,VALID,0,
2013-03-13, 00:30:04,VALID,920.022,VALID,0,VALID,97.4501,VALID,0,VALID,18.4188,VALID,144,VALID,0,
2013-03-13, 00:31:04,VALID,919.974,VALID,0,VALID,97.4425,VALID,0,VALID,18.3979,VALID,144,VALID,0,
2013-03-13, 00:32:04,VALID,920.035,VALID,0,VALID,97.4425,VALID,0,VALID,18.5149,VALID,144,VALID,0,
2013-03-13, 00:33:04,VALID,920.053,VALID,0,VALID,97.4577,VALID,0,VALID,18.6124,VALID,144,VALID,0,
2013-03-13, 00:34:04,VALID,919.934,VALID,0,VALID,97.4577,VALID,0,VALID,18.6918,VALID,144,VALID,0,
2013-03-13, 00:35:04,VALID,919.933,VALID,0,VALID,97.4882,VALID,0,VALID,18.6513,VALID,144,VALID,0,
2013-03-13, 00:36:04,VALID,919.972,VALID,0,VALID,97.4654,VALID,0,VALID,18.6528,VALID,144,VALID,0,
2013-03-13, 00:37:04,VALID,920.203,VALID,0,VALID,97.4882,VALID,0,VALID,18.6319,VALID,144,VALID,0,
2013-03-13, 00:38:04,VALID,919.939,VALID,0,VALID,97.473,VALID,0,VALID,18.6124,VALID,144,VALID,0,
2013-03-13, 00:39:04,VALID,920.214,VALID,0,VALID,97.473,VALID,0,VALID,18.6528,VALID,144,VALID,0,
2013-03-13, 00:40:04,VALID,919.85,VALID,0,VALID,97.4577,VALID,0,VALID,18.6528,VALID,144,VALID,0,
2013-03-13, 00:41:04,VALID,919.751,VALID,0,VALID,97.473,VALID,0,VALID,18.6333,VALID,144,VALID,0,
2013-03-13, 00:42:04,VALID,919.949,VALID,0,VALID,97.4577,VALID,0,VALID,18.5929,VALID,144,VALID,0,
2013-03-13, 00:43:04,VALID,919.967,VALID,0,VALID,97.4806,VALID,0,VALID,18.6138,VALID,144,VALID,0,
2013-03-13, 00:44:04,VALID,919.65,VALID,0,VALID,97.4654,VALID,0,VALID,18.5539,VALID,144,VALID,0,
2013-03-13, 00:45:04,VALID,919.885,VALID,0,VALID,97.4806,VALID,0,VALID,18.5943,VALID,144,VALID,0,
2013-03-13, 00:46:04,VALID,920.163,VALID,0,VALID,97.473,VALID,0,VALID,18.5748,VALID,143,VALID,0,
2013-03-13, 00:47:04,VALID,920.281,VALID,0,VALID,97.4806,VALID,0,VALID,18.5358,VALID,141,VALID,0,
2013-03-13, 00:48:04,VALID,920.378,VALID,0,VALID,97.473,VALID,0,VALID,18.5943,VALID,141,VALID,0,
2013-03-13, 00:49:04,VALID,919.741,VALID,0,VALID,97.4806,VALID,0,VALID,18.4968,VALID,141,VALID,0,
2013-03-13, 00:50:04,VALID,920.709,VALID,0,VALID,97.4806,VALID,0,VALID,18.4968,VALID,141,VALID,0,
2013-03-13, 00:51:04,VALID,920.113,VALID,0,VALID,97.4806,VALID,0,VALID,18.3018,VALID,141,VALID,0,
2013-03-13, 00:52:04,VALID,920.33,VALID,0,VALID,97.4806,VALID,0,VALID,18.3213,VALID,141,VALID,0,
2013-03-13, 00:53:04,VALID,920.902,VALID,0,VALID,97.4959,VALID,0,VALID,18.4773,VALID,141,VALID,0,
2013-03-13, 00:54:04,VALID,921.299,VALID,0,VALID,97.4882,VALID,0,VALID,18.5748,VALID,107,VALID,0,
2013-03-13, 00:55:04,VALID,920.542,VALID,0,VALID,97.5035,VALID,0,VALID,18.6528,VALID,351,VALID,0,
2013-03-13, 00:56:04,VALID,921.393,VALID,0,VALID,97.4806,VALID,0,VALID,18.7113,VALID,351,VALID,0,
2013-03-13, 00:57:04,VALID,920.78,VALID,0,VALID,97.4806,VALID,0,VALID,18.7697,VALID,351,VALID,0,
2013-03-13, 00:58:04,VALID,920.62,VALID,0,VALID,97.5035,VALID,0,VALID,18.8282,VALID,351,VALID,0,
2013-03-13, 00:59:04,VALID,920.667,VALID,0,VALID,97.4806,VALID,0,VALID,18.8477,VALID,351,VALID,0,
2013-03-13, 01:00:04,VALID,920.209,VALID,0,VALID,97.473,VALID,0,VALID,18.8477,VALID,351,VALID,0,
2013-03-13, 01:01:04,VALID,920.296,VALID,0,VALID,97.4806,VALID,0,VALID,18.8477,VALID,351,VALID,0,
2013-03-13, 01:02:04,VALID,920.992,VALID,0,VALID,97.4959,VALID,0,VALID,18.8087,VALID,351,VALID,0,
2013-03-13, 01:03:04,VALID,919.513,VALID,0,VALID,97.4806,VALID,0,VALID,18.7503,VALID,351,VALID,0,
2013-03-13, 01:04:04,INVALID,922.863,VALID,0,VALID,97.473,VALID,0,VALID,18.7113,VALID,351,VALID,0,
2013-03-13, 07:07:04,VALID,918.708,VALID,0,VALID,97.6788,VALID,97.664,VALID,18.6918,VALID,119,VALID,0,
2013-03-13, 07:08:04,VALID,918.749,VALID,0,VALID,97.6636,VALID,102.069,VALID,18.8087,VALID,119,VALID,0,
2013-03-13, 07:09:04,VALID,918.781,VALID,0,VALID,97.6712,VALID,107.011,VALID,18.8463,VALID,119,VALID,0,
2013-03-13, 07:10:04,VALID,918.819,VALID,0,VALID,97.656,VALID,108.73,VALID,18.9647,VALID,119,VALID,0,
2013-03-13, 07:11:04,VALID,918.807,VALID,0,VALID,97.6636,VALID,110.987,VALID,18.9633,VALID,119,VALID,0,
2013-03-13, 07:12:04,VALID,918.814,VALID,0,VALID,97.6483,VALID,115.822,VALID,19.0023,VALID,119,VALID,0,
2013-03-13, 07:13:04,VALID,918.845,VALID,0,VALID,97.6331,VALID,119.582,VALID,19.2572,VALID,119,VALID,0,
2013-03-13, 07:14:04,VALID,918.854,VALID,0,VALID,97.6178,VALID,123.02,VALID,19.2767,VALID,119,VALID,0,
2013-03-13, 07:15:04,VALID,918.857,VALID,0,VALID,97.6178,VALID,126.673,VALID,19.0998,VALID,144,VALID,0,
2013-03-13, 07:16:04,VALID,918.88,VALID,0,VALID,97.6178,VALID,130.541,VALID,19.0608,VALID,147,VALID,0,
2013-03-13, 07:17:04,VALID,918.879,VALID,0,VALID,97.6636,VALID,134.087,VALID,19.0218,VALID,147,VALID,0,
2013-03-13, 07:18:04,VALID,918.856,VALID,0,VALID,97.6331,VALID,138.062,VALID,19.0413,VALID,147,VALID,0,
2013-03-13, 07:19:04,VALID,918.864,VALID,0,VALID,97.6255,VALID,142.145,VALID,19.0817,VALID,146,VALID,0,
2013-03-13, 07:20:04,VALID,919.667,VALID,0,VALID,97.6331,VALID,140.963,VALID,19.0998,VALID,146,VALID,0,
2013-03-13, 07:21:04,VALID,919.245,VALID,0,VALID,97.6102,VALID,145.798,VALID,19.1597,VALID,145,VALID,0,
2013-03-13, 07:22:04,VALID,919.546,VALID,0,VALID,97.6026,VALID,153.533,VALID,19.1987,VALID,146,VALID,0,
2013-03-13, 07:23:04,VALID,919.169,VALID,0,VALID,97.595,VALID,157.509,VALID,19.2767,VALID,145,VALID,0,
2013-03-13, 07:24:04,VALID,919.22,VALID,0,VALID,97.5873,VALID,161.054,VALID,19.4132,VALID,145,VALID,0,
2013-03-13, 07:25:04,VALID,919.317,VALID,0,VALID,97.5645,VALID,164.6,VALID,19.5288,VALID,145,VALID,0,
2013-03-13, 07:26:04,VALID,919.132,VALID,0,VALID,97.5416,VALID,167.931,VALID,19.6848,VALID,145,VALID,0,
2013-03-13, 07:27:04,VALID,919.609,VALID,0,VALID,97.534,VALID,171.154,VALID,19.7433,VALID,145,VALID,0,
2013-03-13, 07:28:04,VALID,919.351,VALID,0,VALID,97.5264,VALID,174.484,VALID,19.6848,VALID,145,VALID,0,
2013-03-13, 07:29:04,VALID,919.498,VALID,0,VALID,97.5492,VALID,177.6,VALID,19.6848,VALID,146,VALID,0,
2013-03-13, 07:30:04,VALID,919.269,VALID,0,VALID,97.5264,VALID,180.071,VALID,19.7643,VALID,144,VALID,0,
2013-03-13, 07:31:04,VALID,919.196,VALID,0,VALID,97.5264,VALID,185.336,VALID,19.7433,VALID,153,VALID,0,
2013-03-13, 07:32:04,VALID,919.023,VALID,0,VALID,97.5416,VALID,190.278,VALID,19.6458,VALID,162,VALID,0,
2013-03-13, 07:33:04,INVALID,922.653,VALID,0,VALID,97.5416,VALID,194.683,VALID,19.5678,VALID,156,VALID,0,
2013-03-13, 07:34:04,VALID,919.081,VALID,0,VALID,97.534,VALID,199.196,VALID,19.5498,VALID,157,VALID,0,
2013-03-13, 07:35:04,VALID,919.097,VALID,0,VALID,97.5416,VALID,202.956,VALID,19.4883,VALID,152,VALID,0,
2013-03-13, 07:36:04,VALID,919.078,VALID,0,VALID,97.5187,VALID,206.502,VALID,19.5093,VALID,135,VALID,0,
2013-03-13, 07:37:04,VALID,918.955,VALID,0,VALID,97.5035,VALID,209.94,VALID,19.5093,VALID,142,VALID,0,
2013-03-13, 07:38:04,VALID,919.102,VALID,0,VALID,97.5111,VALID,214.453,VALID,19.6068,VALID,153,VALID,0,
2013-03-13, 07:39:04,VALID,919.105,VALID,0,VALID,97.5111,VALID,218.213,VALID,19.5468,VALID,141,VALID,0,
2013-03-13, 07:40:04,VALID,919.138,VALID,0,VALID,97.4959,VALID,222.081,VALID,19.5873,VALID,141,VALID,0,
2013-03-13, 07:41:04,VALID,919.062,VALID,0,VALID,97.4654,VALID,225.412,VALID,19.7628,VALID,141,VALID,0,
2013-03-13, 07:42:04,VALID,919.146,VALID,0,VALID,97.473,VALID,228.635,VALID,19.7808,VALID,141,VALID,0,
2013-03-13, 07:43:04,VALID,919.237,VALID,0,VALID,97.473,VALID,231.643,VALID,19.8393,VALID,172,VALID,0,
2013-03-13, 07:44:04,VALID,919.174,VALID,0,VALID,97.4577,VALID,235.618,VALID,19.8588,VALID,166,VALID,0,
2013-03-13, 07:45:04,VALID,919.207,VALID,0,VALID,97.4577,VALID,232.288,VALID,19.9968,VALID,156,VALID,0,
2013-03-13, 07:46:04,VALID,919.193,VALID,0,VALID,97.4501,VALID,231.213,VALID,19.9953,VALID,156,VALID,0,
2013-03-13, 07:47:04,VALID,919.222,VALID,0,VALID,97.4044,VALID,246.47,VALID,20.0944,VALID,159,VALID,0,
2013-03-13, 07:48:04,VALID,919.229,VALID,0,VALID,97.4425,VALID,248.941,VALID,20.0733,VALID,127,VALID,0,
2013-03-13, 07:49:04,VALID,919.234,VALID,0,VALID,97.3968,VALID,249.478,VALID,20.2489,VALID,152,VALID,0,
2013-03-13, 07:50:04,VALID,919.237,VALID,0,VALID,97.4044,VALID,250.875,VALID,20.2489,VALID,117,VALID,0,
2013-03-13, 07:51:04,VALID,919.225,VALID,0,VALID,97.3815,VALID,257.107,VALID,20.3464,VALID,121,VALID,0,
2013-03-13, 07:52:04,VALID,919.25,VALID,0,VALID,97.3586,VALID,257.536,VALID,20.5235,VALID,117,VALID,0,
2013-03-13, 07:53:04,VALID,919.223,VALID,0,VALID,97.3358,VALID,269.462,VALID,20.582,VALID,140,VALID,0,
2013-03-13, 07:54:04,VALID,919.247,VALID,0,VALID,97.3205,VALID,276.554,VALID,20.66,VALID,168,VALID,0,
2013-03-13, 07:55:04,VALID,919.271,VALID,0,VALID,97.3053,VALID,280.529,VALID,20.6795,VALID,134,VALID,0,
2013-03-13, 07:56:04,VALID,919.267,VALID,0,VALID,97.3129,VALID,283.752,VALID,20.7576,VALID,134,VALID,0,
2013-03-13, 07:57:04,VALID,919.242,VALID,0,VALID,97.2595,VALID,288.265,VALID,20.8161,VALID,154,VALID,0,
2013-03-13, 07:58:04,VALID,919.261,VALID,0,VALID,97.2595,VALID,292.455,VALID,20.8161,VALID,138,VALID,0,
2013-03-13, 07:59:04,VALID,919.246,VALID,0,VALID,97.229,VALID,296.108,VALID,20.8356,VALID,119,VALID,0,
2013-03-13, 08:00:04,VALID,919.227,VALID,0,VALID,97.2138,VALID,299.653,VALID,20.9331,VALID,124,VALID,0,
2013-03-13, 08:01:04,VALID,919.242,VALID,0,VALID,97.1909,VALID,303.414,VALID,20.8746,VALID,88,VALID,0,
2013-03-13, 08:02:04,VALID,919.224,VALID,0,VALID,97.1757,VALID,306.315,VALID,20.8161,VALID,123,VALID,0,
2013-03-13, 08:03:04,VALID,919.262,VALID,0,VALID,97.1604,VALID,310.075,VALID,20.7365,VALID,135,VALID,0,
2013-03-13, 08:04:04,VALID,919.245,VALID,0,VALID,97.1299,VALID,313.513,VALID,20.6975,VALID,147,VALID,0,
2013-03-13, 08:05:04,VALID,919.274,VALID,0,VALID,97.1299,VALID,316.737,VALID,20.678,VALID,164,VALID,0,
2013-03-13, 08:06:04,VALID,919.254,VALID,0,VALID,97.1071,VALID,320.39,VALID,20.6795,VALID,156,VALID,0,
2013-03-13, 08:07:04,VALID,919.285,VALID,0,VALID,97.0918,VALID,324.472,VALID,20.7381,VALID,143,VALID,0,
2013-03-13, 08:08:04,VALID,919.268,VALID,0,VALID,97.069,VALID,328.77,VALID,20.6975,VALID,159,VALID,0,
2013-03-13, 08:09:04,VALID,919.292,VALID,0,VALID,97.0461,VALID,332.101,VALID,20.7381,VALID,151,VALID,0,
2013-03-13, 08:10:04,VALID,919.299,VALID,0,VALID,97.0156,VALID,336.398,VALID,20.6374,VALID,163,VALID,0,
2013-03-13, 08:11:04,VALID,919.319,VALID,0,VALID,96.9851,VALID,339.729,VALID,20.639,VALID,175,VALID,0,
2013-03-13, 08:12:04,VALID,919.298,VALID,0,VALID,96.9851,VALID,344.349,VALID,20.6975,VALID,150,VALID,0,
2013-03-13, 08:13:04,VALID,919.349,VALID,0,VALID,96.9698,VALID,348.969,VALID,20.6569,VALID,159,VALID,0,
2013-03-13, 08:14:04,VALID,919.349,VALID,0,VALID,96.9012,VALID,352.837,VALID,20.5984,VALID,133,VALID,0,
2013-03-13, 08:15:04,VALID,919.397,VALID,0,VALID,96.8555,VALID,357.457,VALID,20.6179,VALID,172,VALID,0,
2013-03-13, 08:16:04,VALID,919.382,VALID,0,VALID,96.8174,VALID,361.647,VALID,20.6569,VALID,130,VALID,0,
2013-03-13, 08:17:04,VALID,919.413,VALID,0,VALID,96.7793,VALID,364.763,VALID,20.7349,VALID,137,VALID,0,
2013-03-13, 08:18:04,VALID,919.44,VALID,0,VALID,96.764,VALID,366.697,VALID,20.8324,VALID,140,VALID,0,
2013-03-13, 08:19:04,VALID,919.437,VALID,0,VALID,96.7411,VALID,369.275,VALID,20.93,VALID,166,VALID,0,
2013-03-13, 08:20:04,VALID,919.454,VALID,0,VALID,96.6725,VALID,373.895,VALID,21.008,VALID,161,VALID,0,
2013-03-13, 08:21:04,VALID,919.467,VALID,0,VALID,96.5658,VALID,377.441,VALID,21.047,VALID,127,VALID,0,
2013-03-13, 08:22:04,VALID,919.488,VALID,0,VALID,96.5048,VALID,381.953,VALID,21.1266,VALID,182,VALID,0,
2013-03-13, 08:23:04,VALID,919.471,VALID,0,VALID,96.3981,VALID,387.755,VALID,21.2047,VALID,151,VALID,0,
2013-03-13, 08:24:04,VALID,919.499,VALID,0,VALID,96.3676,VALID,389.259,VALID,21.3608,VALID,153,VALID,0,
2013-03-13, 08:25:04,VALID,919.516,VALID,0,VALID,96.1999,VALID,393.772,VALID,21.3803,VALID,156,VALID,0,
2013-03-13, 08:26:04,VALID,919.55,VALID,0,VALID,95.7654,VALID,397.532,VALID,21.3608,VALID,137,VALID,0,
2013-03-13, 08:27:04,VALID,919.539,VALID,0,VALID,95.3918,VALID,401.937,VALID,21.4388,VALID,124,VALID,0,
2013-03-13, 08:28:04,VALID,919.583,VALID,0,VALID,95.247,VALID,405.375,VALID,21.4762,VALID,165,VALID,0,
2013-03-13, 08:29:04,VALID,919.573,VALID,0,VALID,94.4313,VALID,409.351,VALID,21.4762,VALID,167,VALID,0,
2013-03-13, 08:30:04,VALID,919.591,VALID,0,VALID,94.3093,VALID,412.359,VALID,21.5152,VALID,156,VALID,0,
2013-03-13, 08:31:04,VALID,919.589,VALID,0,VALID,93.829,VALID,415.797,VALID,21.6144,VALID,143,VALID,0,
2013-03-13, 08:32:04,VALID,919.599,VALID,0,VALID,93.4402,VALID,419.021,VALID,21.7315,VALID,149,VALID,0,
2013-03-13, 08:33:04,VALID,919.634,VALID,0,VALID,91.3057,VALID,423.318,VALID,21.751,VALID,164,VALID,0,
2013-03-13, 08:34:04,VALID,919.635,VALID,0,VALID,89.5675,VALID,426.434,VALID,21.6908,VALID,166,VALID,0,
2013-03-13, 08:35:04,VALID,919.643,VALID,0,VALID,89.072,VALID,429.765,VALID,21.6908,VALID,171,VALID,0,
2013-03-13, 08:36:04,VALID,919.621,VALID,0,VALID,88.7442,VALID,433.418,VALID,21.712,VALID,173,VALID,0,
2013-03-13, 08:37:04,VALID,919.623,VALID,0,VALID,90.2155,VALID,436.319,VALID,21.7688,VALID,153,VALID,0,
2013-03-13, 08:38:04,VALID,919.63,VALID,0,VALID,90.1774,VALID,425.574,VALID,21.8469,VALID,170,VALID,0,
2013-03-13, 08:39:04,VALID,919.591,VALID,0,VALID,90.2917,VALID,425.145,VALID,21.964,VALID,122,VALID,0,
2013-03-13, 08:40:04,VALID,919.615,VALID,0,VALID,90.5052,VALID,448.03,VALID,22.081,VALID,154,VALID,0,
2013-03-13, 08:41:04,VALID,919.641,VALID,0,VALID,90.8406,VALID,452.327,VALID,22.2176,VALID,164,VALID,0,
2013-03-13, 08:42:04,VALID,919.625,VALID,0,VALID,89.72,VALID,456.303,VALID,22.2957,VALID,164,VALID,0,
2013-03-13, 08:43:04,VALID,919.642,VALID,0,VALID,89.5142,VALID,459.311,VALID,22.3542,VALID,164,VALID,0,
2013-03-13, 08:44:04,VALID,919.661,VALID,0,VALID,89.4532,VALID,463.501,VALID,22.3933,VALID,151,VALID,0,
2013-03-13, 08:45:04,VALID,919.644,VALID,0,VALID,88.8433,VALID,467.047,VALID,22.4518,VALID,149,VALID,0,
2013-03-13, 08:46:04,VALID,919.616,VALID,0,VALID,87.9513,VALID,471.882,VALID,22.3737,VALID,152,VALID,0,
2013-03-13, 08:47:04,VALID,919.633,VALID,0,VALID,89.2473,VALID,475.427,VALID,22.3933,VALID,144,VALID,0,
2013-03-13, 08:48:04,VALID,919.6,VALID,0,VALID,89.1711,VALID,479.188,VALID,22.372,VALID,159,VALID,0,
2013-03-13, 08:49:04,VALID,919.608,VALID,0,VALID,89.4837,VALID,482.626,VALID,22.473,VALID,173,VALID,0,
2013-03-13, 08:50:04,VALID,919.625,VALID,0,VALID,88.2487,VALID,485.634,VALID,22.5316,VALID,179,VALID,0,
2013-03-13, 08:51:04,VALID,919.63,VALID,0,VALID,88.5841,VALID,487.675,VALID,22.5884,VALID,182,VALID,0,
2013-03-13, 08:52:04,VALID,919.645,VALID,0,VALID,89.1482,VALID,490.039,VALID,22.725,VALID,144,VALID,0,
2013-03-13, 08:53:04,VALID,919.659,VALID,0,VALID,87.9361,VALID,491.973,VALID,22.8048,VALID,155,VALID,0,
2013-03-13, 08:54:04,VALID,919.63,VALID,0,VALID,86.9451,VALID,494.444,VALID,22.8634,VALID,159,VALID,0,
2013-03-13, 08:55:04,VALID,919.668,VALID,0,VALID,86.0074,VALID,498.742,VALID,22.8226,VALID,164,VALID,0,
2013-03-13, 08:56:04,VALID,919.633,VALID,0,VALID,86.9603,VALID,499.816,VALID,22.8226,VALID,159,VALID,0,
2013-03-13, 08:57:04,VALID,919.65,VALID,0,VALID,87.6007,VALID,496.915,VALID,22.9415,VALID,162,VALID,0,
2013-03-13, 08:58:04,VALID,919.676,VALID,0,VALID,86.0379,VALID,492.725,VALID,23.0959,VALID,178,VALID,0,
2013-03-13, 08:59:04,VALID,919.64,VALID,0,VALID,85.0926,VALID,494.874,VALID,23.1544,VALID,176,VALID,0,
2013-03-13, 09:00:04,VALID,919.716,VALID,0,VALID,83.1029,VALID,493.37,VALID,23.0959,VALID,161,VALID,0,
2013-03-13, 09:01:04,VALID,919.688,VALID,0,VALID,84.9858,VALID,501.643,VALID,22.9983,VALID,168,VALID,0,
2013-03-13, 09:02:04,VALID,919.682,VALID,0,VALID,85.6033,VALID,501.965,VALID,22.9983,VALID,203,VALID,0,
2013-03-13, 09:03:04,VALID,919.69,VALID,0,VALID,85.7406,VALID,503.039,VALID,23.0763,VALID,162,VALID,0,
2013-03-13, 09:04:04,VALID,919.738,VALID,0,VALID,84.0863,VALID,504.329,VALID,23.0959,VALID,142,VALID,0,
2013-03-13, 09:05:04,VALID,919.737,VALID,0,VALID,84.6657,VALID,519.693,VALID,23.1154,VALID,97,VALID,0,
2013-03-13, 09:06:04,VALID,919.683,VALID,0,VALID,83.9338,VALID,527.536,VALID,23.252,VALID,90,VALID,0,
2013-03-13, 09:07:04,VALID,919.703,VALID,0,VALID,80.0992,VALID,527.321,VALID,23.2715,VALID,157,VALID,0,
2013-03-13, 09:08:04,VALID,919.752,VALID,0,VALID,81.5934,VALID,527.643,VALID,23.3283,VALID,157,VALID,0,
2013-03-13, 09:09:04,VALID,919.7,VALID,0,VALID,81.1665,VALID,524.205,VALID,23.4472,VALID,157,VALID,0,
2013-03-13, 09:10:04,VALID,919.726,VALID,0,VALID,81.5401,VALID,526.462,VALID,23.6229,VALID,130,VALID,0,
2013-03-13, 09:11:04,VALID,919.751,VALID,0,VALID,80.8844,VALID,516.792,VALID,23.7205,VALID,150,VALID,0,
2013-03-13, 09:12:04,VALID,919.775,VALID,0,VALID,81.0445,VALID,507.445,VALID,23.8377,VALID,142,VALID,0,
2013-03-13, 09:13:04,VALID,919.66,VALID,0,VALID,79.5503,VALID,519.263,VALID,23.8962,VALID,119,VALID,0,
2013-03-13, 09:14:04,VALID,919.738,VALID,0,VALID,77.3777,VALID,535.057,VALID,23.9353,VALID,70,VALID,0,
2013-03-13, 09:15:04,VALID,919.757,VALID,0,VALID,75.7386,VALID,545.049,VALID,23.9939,VALID,49,VALID,0,
2013-03-13, 09:16:04,VALID,919.829,VALID,0,VALID,76.3028,VALID,526.354,VALID,23.953,VALID,48,VALID,0,
2013-03-13, 09:17:04,VALID,919.774,VALID,0,VALID,78.6127,VALID,539.462,VALID,23.9725,VALID,45,VALID,0,
2013-03-13, 09:18:04,VALID,919.796,VALID,0,VALID,75.9063,VALID,556.545,VALID,24.0896,VALID,39,VALID,0,
2013-03-13, 09:19:04,VALID,919.798,VALID,0,VALID,76.3866,VALID,572.339,VALID,24.1677,VALID,27,VALID,0,
2013-03-13, 09:20:04,VALID,919.86,VALID,0,VALID,74.8924,VALID,580.075,VALID,24.2458,VALID,101,VALID,0,
2013-03-13, 09:21:04,VALID,919.841,VALID,0,VALID,77.2252,VALID,579.752,VALID,24.2281,VALID,89,VALID,0,
2013-03-13, 09:22:04,VALID,919.842,VALID,0,VALID,76.318,VALID,587.058,VALID,24.2263,VALID,115,VALID,0,
2013-03-13, 09:23:04,VALID,919.838,VALID,0,VALID,76.8059,VALID,586.951,VALID,24.3435,VALID,115,VALID,0,
2013-03-13, 09:24:04,VALID,919.378,VALID,0,VALID,75.6243,VALID,589.315,VALID,24.5387,VALID,115,VALID,0,
2013-03-13, 09:25:04,VALID,919.795,VALID,0,VALID,73.6041,VALID,590.819,VALID,24.6949,VALID,115,VALID,0,
2013-03-13, 09:26:04,VALID,919.633,VALID,0,VALID,73.4287,VALID,597.695,VALID,24.773,VALID,115,VALID,0,
2013-03-13, 09:27:04,VALID,919.758,VALID,0,VALID,73.8404,VALID,598.984,VALID,24.8726,VALID,115,VALID,0,
2013-03-13, 09:28:04,VALID,919.776,VALID,0,VALID,71.0884,VALID,606.398,VALID,24.9488,VALID,115,VALID,0,
2013-03-13, 09:29:04,VALID,919.756,VALID,0,VALID,70.2803,VALID,615.423,VALID,25.1617,VALID,115,VALID,0,
2013-03-13, 09:30:04,VALID,919.8,VALID,0,VALID,70.6233,VALID,618.646,VALID,25.3003,VALID,115,VALID,0,
2013-03-13, 09:31:04,VALID,919.951,VALID,0,VALID,70.8368,VALID,622.299,VALID,25.5542,VALID,115,VALID,0,
2013-03-13, 09:32:04,VALID,919.895,VALID,0,VALID,70.7834,VALID,626.06,VALID,25.6714,VALID,76,VALID,0,
2013-03-13, 09:33:04,VALID,920.201,VALID,0,VALID,69.4722,VALID,628.531,VALID,25.8472,VALID,62,VALID,0,
2013-03-13, 09:34:04,VALID,919.823,VALID,0,VALID,65.5614,VALID,631.969,VALID,25.9253,VALID,173,VALID,0,
2013-03-13, 09:35:04,VALID,919.278,VALID,0,VALID,68.2296,VALID,636.374,VALID,26.023,VALID,173,VALID,0,
2013-03-13, 09:36:04,VALID,919.909,VALID,0,VALID,67.4749,VALID,639.705,VALID,26.1988,VALID,173,VALID,0,
2013-03-13, 09:37:05,VALID,919.915,VALID,0,VALID,66.621,VALID,642.176,VALID,26.2985,VALID,173,VALID,0,
2013-03-13, 09:38:04,VALID,919.883,VALID,0,VALID,67.7036,VALID,643.895,VALID,26.4548,VALID,173,VALID,0,
2013-03-13, 09:39:04,VALID,919.843,VALID,0,VALID,68.1457,VALID,644.432,VALID,26.57,VALID,172,VALID,0,
2013-03-13, 09:40:04,VALID,919.714,VALID,0,VALID,67.6197,VALID,641.531,VALID,26.7479,VALID,353,VALID,0,
2013-03-13, 09:41:04,VALID,920.097,VALID,0,VALID,64.7914,VALID,649.482,VALID,26.6893,VALID,290,VALID,0,
2013-03-13, 09:42:04,VALID,920.124,VALID,0,VALID,65.63,VALID,650.986,VALID,26.2965,VALID,277,VALID,0,
2013-03-13, 09:43:04,VALID,919.894,VALID,0,VALID,66.8116,VALID,654.854,VALID,26.1402,VALID,277,VALID,0,
2013-03-13, 09:44:04,VALID,919.922,VALID,0,VALID,67.6426,VALID,661.193,VALID,26.1382,VALID,5,VALID,0,
2013-03-13, 09:45:04,VALID,919.926,VALID,0,VALID,70.0363,VALID,662.375,VALID,26.1793,VALID,3,VALID,0,
2013-03-13, 09:46:04,VALID,920.126,VALID,0,VALID,68.6794,VALID,662.697,VALID,26.316,VALID,22,VALID,0,
2013-03-13, 09:47:04,VALID,920.333,VALID,0,VALID,67.1013,VALID,663.234,VALID,26.3746,VALID,22,VALID,0,
2013-03-13, 09:48:04,VALID,920.061,VALID,0,VALID,66.3771,VALID,666.457,VALID,26.2554,VALID,273,VALID,0,
2013-03-13, 09:49:04,VALID,919.382,VALID,0,VALID,69.4798,VALID,670.218,VALID,26.0425,VALID,273,VALID,0,
2013-03-13, 09:50:04,VALID,919.694,VALID,0,VALID,68.3439,VALID,675.268,VALID,26.0992,VALID,272,VALID,0,
2013-03-13, 09:51:04,VALID,919.983,VALID,0,VALID,66.9183,VALID,678.169,VALID,26.3356,VALID,284,VALID,0,
2013-03-13, 09:52:04,VALID,919.944,VALID,0,VALID,63.3811,VALID,679.995,VALID,26.4332,VALID,280,VALID,0,